Date,TemperatureHighF,TemperatureAvgF,TemperatureLowF,DewpointHighF,DewpointAvgF,DewpointLowF,HumidityHigh,HumidityAvg,HumidityLow,PressureMaxIn,PressureMinIn,WindSpeedMaxMPH,WindSpeedAvgMPH,GustSpeedMaxMPH,PrecipitationSumIn
2013-11-1,67,61,57,64,60,57,99,98,85,29.94,29.87,7,2,0,0.00
2013-11-4,77,65,49,60,54,-100,98,73,54,30.19,30.09,13,-22,0,0.00
2013-11-5,80,69,58,69,64,58,99,88,69,30.14,30.05,13,7,0,0.00
2013-11-6,79,69,57,73,68,57,99,95,81,30.18,30.03,11,4,0,1.22
2013-11-7,64,55,48,57,47,41,99,76,45,30.36,30.19,11,5,0,0.00
2013-11-8,66,56,45,46,44,40,99,68,39,30.37,30.20,17,3,0,0.00
2013-11-9,69,56,44,52,48,43,99,77,45,30.26,30.17,5,2,0,0.00
2013-11-10,74,60,49,58,53,47,97,78,55,30.29,30.20,6,2,0,0.00
2013-11-11,74,58,47,57,52,46,99,82,47,30.27,30.15,5,1,0,0.00
2013-11-12,71,53,38,57,46,31,99,79,59,30.57,30.21,9,4,0,0.00
2013-11-13,56,42,32,32,29,25,84,62,32,30.60,30.43,7,4,0,0.19
2013-11-14,61,49,29,49,41,28,99,76,52,30.37,30.13,5,1,0,0.00
2013-11-15,72,60,51,63,59,50,99,95,73,30.07,29.95,4,1,0,0.00
2013-11-16,78,71,62,72,68,62,99,92,77,30.00,29.87,11,5,0,0.08
2013-11-17,82,75,71,78,74,70,99,96,84,29.95,29.83,13,6,0,0.08
2013-11-18,74,68,56,74,55,40,99,66,41,30.14,29.95,6,3,0,0.35
2013-11-19,67,55,42,44,40,35,82,59,32,30.19,30.06,14,3,0,0.00
2013-11-20,72,54,39,52,44,35,93,71,37,30.11,29.99,8,2,0,0.00
2013-11-21,77,66,52,71,64,52,99,94,80,30.15,30.05,9,4,0,0.00
2013-11-22,72,68,65,70,67,64,99,97,88,30.23,30.11,8,3,0,0.16
2013-11-23,64,51,43,63,49,39,99,95,84,30.40,30.20,8,5,0,0.01
2013-11-24,51,42,37,39,32,27,85,66,44,30.45,30.31,9,5,0,0.00
2013-11-25,40,35,-40,40,32,-40,99,91,73,30.33,29.99,10,4,0,2.08
2013-11-28,49,37,28,36,26,-100,99,73,46,30.51,29.92,6,-38,0,0.00
2013-11-29,60,40,25,39,32,25,99,78,37,30.54,30.42,8,2,0,0.00
2013-11-30,66,45,28,46,35,28,99,75,26,30.45,30.25,6,1,0,0.00